Temperature
17 17 17 17 17 18 20 22 24 24 24 23 23 23 22 21 20 18 16 16 16 16 16 16 16 16 15 15 15 15 15 15 15 15 15 15 15 15 15 15 15 15 15 15 15 15 15 15 15
17 17 17 18 18 18 20 22 23 23 22 22 22 22 22 20 18 17 16 16 16 16 16 16 16 16 15 15 15 15 15 15 15 15 15 15 15 15 15 15 15 15 15 15 15 15 15 15 15
16 16 17 18 19 19 21 22 22 22 22 22 22 21 21 19 18 16 16 16 15 15 16 15 15 15 15 15 15 15 15 15 15 15 15 15 15 15 15 15 14 14 15 15 15 15 15 15 15
16 16 18 18 19 20 21 22 21 21 21 21 21 20 18 17 17 16 16 15 15 15 15 15 15 15 15 15 15 15 15 15 15 15 15 15 15 15 15 14 14 14 14 14 14 14 15 14 14
15 17 17 17 19 20 21 22 22 21 21 21 21 20 17 16 16 16 16 15 15 15 15 15 15 15 15 15 15 15 14 14 14 14 14 14 14 14 14 14 14 14 14 14 14 14 14 14 14
16 17 17 17 19 20 21 21 21 21 21 21 20 19 16 16 16 16 15 15 15 14 14 15 15 15 15 15 15 14 14 14 14 14 14 14 14 14 14 14 14 14 14 14 14 14 14 14 14
16 16 17 18 19 20 21 21 21 20 20 20 20 19 16 15 15 15 15 15 14 14 14 14 14 14 14 14 14 14 14 14 14 14 14 14 14 14 14 14 14 14 14 14 14 14 14 14 14
15 16 17 18 19 19 20 20 19 19 19 19 19 18 16 15 15 15 15 14 14 14 14 14 14 14 14 14 14 14 14 14 14 14 14 14 14 14 14 14 14 14 14 14 14 14 14 14 14
15 15 16 18 19 19 19 19 18 18 17 17 17 16 15 15 15 14 14 14 14 13 13 13 13 13 13 13 13 14 14 14 14 13 13 13 13 13 13 13 14 14 13 14 14 14 14 14 13
15 14 16 17 18 18 18 18 17 17 16 16 16 15 15 14 14 14 14 13 13 13 13 13 13 13 13 13 13 13 13 13 13 13 13 13 13 13 13 13 13 13 13 13 13 13 13 13 13
15 15 16 16 16 16 16 16 17 17 16 16 16 15 14 14 14 13 13 13 13 13 13 13 13 13 13 13 13 13 13 13 13 13 13 13 13 13 13 13 13 13 13 13 13 13 13 13 13
15 15 16 15 14 15 15 15 15 15 15 15 15 14 14 14 13 13 13 13 12 12 12 12 12 12 12 12 13 13 12 12 13 13 13 13 13 13 13 13 13 13 13 13 12 12 12 12 12
14 14 14 14 14 14 14 14 14 14 14 14 14 14 13 13 13 13 12 12 12 12 12 12 12 12 12 12 12 12 12 12 12 12 12 12 12 13 13 13 12 12 12 12 12 12 12 12 12
14 14 14 13 13 13 13 13 13 14 14 13 13 13 13 12 12 12 12 12 12 11 12 12 11 12 12 12 12 12 12 12 12 12 12 12 12 12 12 12 12 12 12 12 12 12 12 12 11
13 12 13 13 13 13 13 12 13 13 13 13 13 12 12 12 12 11 11 11 11 11 11 11 11 11 11 11 11 11 11 11 12 12 12 12 12 12 12 12 12 12 12 12 11 11 11 11 11
12 12 11 13 13 13 12 11 13 13 13 13 12 12 11 11 11 11 10 10 10 10 10 11 11 11 11 11 11 11 11 11 11 11 11 11 11 11 11 11 11 11 11 11 11 11 11 11 11
11 11 11 12 13 13 12 11 12 12 12 12 12 11 11 10 10 10 10 10 10 10 10 10 10 10 10 10 10 10 10 10 11 11 10 10 10 10 10 11 11 11 11 11 11 11 11 11 11
10 11 12 12 12 12 11 11 11 12 12 12 11 11 10 10 9 9 9 9 9 9 9 10 10 10 10 10 10 10 10 10 10 10 10 10 10 10 10 10 10 10 10 10 10 10 10 10 10
11 11 11 12 11 11 11 11 11 11 11 11 11 10 10 9 9 9 9 9 9 9 9 9 9 9 9 9 9 9 9 9 9 9 10 9 10 10 10 10 10 10 10 10 10 10 9 9 9
11 10 11 10 11 11 10 10 11 11 10 10 10 10 10 9 9 8 8 8 8 8 8 9 9 9 9 9 9 9 9 9 9 9 9 9 9 9 9 9 9 9 9 9 9 9 9 9 9
10 9 10 10 10 10 9 9 10 10 10 10 10 10 9 9 8 8 7 7 7 7 8 8 8 8 8 8 8 8 8 8 8 8 8 8 8 9 9 9 9 9 9 9 9 9 9 9 9
8 9 9 9 8 7 8 7 9 10 9 9 9 9 9 8 8 7 7 7 6 7 7 7 8 8 8 8 8 8 7 8 8 8 8 8 8 8 8 8 8 8 8 8 8 8 8 8 8
8 9 8 8 8 7 7 6 8 9 8 8 8 9 8 8 7 7 7 6 6 6 6 7 7 7 7 7 7 7 7 7 7 7 7 8 8 8 8 8 8 8 8 8 8 8 8 8 8
8 8 7 7 6 5 7 6 8 8 8 8 8 8 8 7 7 6 6 6 6 6 6 6 6 6 6 6 6 6 6 6 6 7 7 7 7 7 7 7 7 7 7 7 7 7 8 8 7
7 6 5 6 5 6 7 7 7 8 8 8 8 8 7 7 6 6 5 5 5 5 5 5 5 5 5 5 6 6 6 6 6 6 6 6 6 7 7 7 7 7 7 7 7 7 7 7 7
6 6 6 6 6 7 6 6 7 8 8 8 8 7 7 6 5 5 5 4 4 4 4 4 4 5 5 5 5 5 5 5 5 6 6 6 6 6 6 6 6 6 6 6 6 6 6 6 6
6 6 6 5 5 5 6 7 7 7 6 6 7 6 6 5 5 4 4 4 4 4 4 4 4 4 4 4 4 4 4 5 5 5 5 5 5 5 5 5 5 6 6 6 6 6 6 6 6
5 6 5 4 5 6 7 7 7 6 6 6 5 5 5 5 4 4 3 3 3 3 3 3 3 3 3 3 3 3 4 4 4 4 4 4 4 4 5 5 5 5 5 5 5 5 5 5 5
5 5 5 4 5 5 5 6 7 6 6 5 5 5 5 4 4 3 2 2 2 2 2 2 2 2 2 2 2 2 3 3 3 3 4 4 4 4 4 4 4 4 4 4 4 4 5 5 5
5 5 4 4 4 4 4 5 6 5 5 5 5 4 4 3 3 2 2 2 2 2 2 1 1 1 2 2 2 2 2 2 2 3 3 3 3 3 3 3 3 3 3 3 3 4 4 4 4
Wind_Speed
13 12 6 2 3 5 7 6 3 1 2 4 5 4 5 6 5 7 4 7 10 10 12 11 10 10 9 9 9 9 9 9 9 9 10 10 10 10 10 10 11 11 11 11 12 12 13 13 12
11 7 3 3 4 6 7 6 4 2 4 4 4 3 3 6 7 8 5 7 10 11 12 11 11 10 9 9 9 9 9 9 9 9 9 10 10 10 10 10 10 10 10 11 11 11 12 12 11
9 6 3 4 6 7 4 1 4 6 5 2 1 3 3 4 6 5 6 8 10 10 11 12 12 10 10 9 9 9 9 8 9 9 9 10 10 9 9 9 9 10 10 10 10 10 11 11 10
4 3 4 5 10 8 4 2 5 5 3 0 2 3 4 6 4 6 8 8 9 9 11 12 11 10 9 9 9 8 8 8 8 9 9 9 9 9 9 9 9 9 9 9 10 10 10 9 9
4 3 5 7 11 7 3 1 2 3 4 3 2 2 4 5 8 9 7 8 8 8 10 11 10 10 9 8 8 7 7 7 7 8 9 9 9 9 9 9 8 8 8 9 9 9 9 8 8
3 4 6 9 10 7 4 2 2 3 2 2 2 2 4 6 7 7 7 6 8 8 9 10 9 9 8 8 7 6 6 6 6 7 8 8 9 9 9 9 8 8 8 8 9 8 8 7 6
4 4 7 9 7 6 4 2 3 3 2 1 1 1 5 5 6 6 6 6 8 8 8 7 8 7 7 7 7 6 6 6 6 6 8 8 9 9 9 9 8 8 8 8 8 8 7 6 5
4 4 7 8 8 6 2 1 2 2 1 3 3 0 4 6 5 5 4 5 7 7 6 5 6 6 6 6 6 6 6 5 5 6 7 8 9 9 9 9 9 8 8 7 8 8 7 6 5
4 4 6 6 6 3 1 1 2 3 2 2 2 4 5 8 6 5 4 4 5 5 5 4 4 4 5 5 5 6 5 5 5 5 6 7 8 8 9 9 9 9 8 8 8 8 7 6 4
4 4 5 3 4 2 1 1 1 2 2 2 2 5 6 6 6 5 5 4 4 4 4 4 3 3 4 3 4 4 4 4 5 4 4 5 6 7 8 9 10 9 9 9 8 8 7 5 4
4 5 3 3 5 4 3 3 2 2 3 3 2 5 6 5 5 3 3 3 3 4 3 3 2 2 3 2 3 3 3 3 3 4 4 5 5 6 7 7 7 8 8 7 7 7 6 5 4
5 5 4 2 4 4 2 2 3 3 1 2 4 3 3 4 4 4 3 2 2 3 4 3 2 2 2 2 2 2 2 2 2 3 3 3 3 4 5 5 6 6 6 6 6 5 5 5 4
8 5 3 1 1 2 2 4 4 4 1 1 3 3 2 2 2 2 2 2 2 2 3 3 2 2 2 1 1 2 1 1 2 2 3 3 2 3 4 4 6 6 6 6 5 4 4 3 3
2 3 3 3 3 2 3 4 4 4 2 2 1 2 1 1 2 2 2 1 1 1 2 3 2 2 1 1 1 1 2 2 1 1 2 2 2 2 3 3 4 5 6 6 5 4 4 3 2
2 3 4 6 5 3 3 6 7 6 4 3 3 2 2 2 2 2 2 2 2 1 1 2 2 2 1 1 1 1 1 2 1 1 1 1 2 2 2 2 3 4 6 6 5 4 4 3 2
5 5 5 5 5 4 4 7 4 4 5 5 3 2 2 2 2 2 2 2 2 1 1 1 1 1 1 1 1 1 1 1 1 1 1 1 2 2 2 2 2 4 5 5 4 3 3 3 3
6 6 6 4 5 4 5 5 2 2 4 4 3 2 2 1 1 2 2 2 2 1 1 1 0 1 1 1 1 1 1 1 1 1 1 1 2 3 3 3 3 3 3 3 4 3 3 3 2
5 6 6 6 5 5 7 7 3 3 3 4 3 3 3 2 1 2 2 2 2 1 1 1 0 1 1 1 1 1 1 0 0 1 1 1 2 3 3 3 3 3 3 2 3 4 3 3 3
5 6 6 3 2 5 8 9 6 5 4 4 3 3 3 2 1 2 2 2 2 2 2 1 1 0 1 1 1 1 1 1 1 1 1 1 2 2 3 2 2 3 3 4 3 2 3 3 2
6 7 5 1 1 3 6 9 6 5 5 4 4 3 2 1 1 1 2 2 2 2 2 2 1 1 0 1 1 1 1 2 2 1 1 2 2 3 2 3 3 3 3 3 3 3 2 2 3
6 6 5 3 3 3 5 7 8 6 6 4 3 3 2 2 1 1 2 2 2 2 2 2 2 1 0 0 1 0 0 0 0 1 1 2 2 2 2 3 3 3 3 4 4 4 4 3 3
5 3 4 4 3 4 4 5 6 6 6 6 5 3 2 1 1 1 1 1 1 1 1 1 2 2 1 1 2 2 2 2 2 2 2 2 1 1 2 3 3 3 3 3 4 3 3 4 3
2 2 3 4 4 5 5 5 6 5 6 7 6 4 3 2 1 1 1 1 2 2 2 1 2 2 1 1 1 2 2 2 2 2 2 2 2 2 2 2 2 2 2 3 3 3 4 4 4
1 1 2 3 2 6 8 7 6 5 7 6 6 4 3 2 1 1 2 2 2 2 2 1 2 2 1 1 1 1 2 2 2 3 3 2 1 1 2 2 2 2 3 3 3 4 4 4 4
2 1 1 2 4 6 5 6 6 4 2 4 5 4 3 3 2 2 2 2 2 1 1 2 2 2 2 1 1 1 2 2 3 3 3 2 2 2 3 2 2 2 3 3 3 3 3 4 4
5 4 3 4 4 2 4 7 4 4 3 3 3 3 3 3 2 2 2 1 2 2 2 2 2 3 2 1 1 1 2 2 2 2 2 3 3 3 3 3 3 3 3 3 3 3 4 4 5
4 4 1 2 3 3 5 4 2 3 3 3 2 2 2 2 2 1 1 1 2 2 2 2 2 2 2 2 2 1 2 1 2 2 2 2 2 2 3 3 3 3 3 4 3 3 4 4 4
2 1 2 3 3 5 5 5 4 5 5 4 3 2 1 1 1 1 1 2 2 2 2 2 2 2 2 2 2 2 1 1 1 1 1 2 2 2 2 3 3 2 3 3 3 3 4 4 4
5 4 4 3 3 3 4 3 1 4 4 4 2 1 1 1 1 1 1 2 2 2 2 2 2 2 2 2 2 2 2 2 2 1 1 1 2 2 2 3 3 3 3 3 3 4 3 4 4
3 5 5 4 4 4 3 4 2 5 5 4 3 2 2 2 1 1 1 2 2 2 2 2 2 2 2 2 2 2 2 2 2 2 2 2 2 2 2 3 3 3 3 3 4 4 4 5 5
Wind_Direction
300 279 259 251 242 233 241 247 249 105 53 39 24 21 33 39 37 103 137 102 107 117 122 124 121 124 121 123 131 132 130 127 123 123 122 118 115 111 111 110 108 105 101 97 95 93 91 89 88
292 280 259 237 238 235 237 221 221 109 82 66 33 20 57 76 79 105 117 105 115 117 123 124 125 124 120 117 122 128 132 131 129 127 127 124 120 116 112 112 111 107 106 102 99 97 94 92 90
275 266 250 233 234 241 254 107 106 89 77 96 98 13 39 69 85 100 108 116 114 115 118 119 125 124 121 119 117 123 129 131 131 130 128 129 126 122 119 115 114 113 109 107 107 104 100 98 96
265 236 244 243 246 249 269 26 93 111 105 203 126 92 79 44 60 99 111 113 111 111 113 119 120 121 122 120 119 117 124 132 135 135 131 130 129 127 124 120 119 118 116 113 113 109 106 104 102
246 242 229 235 243 251 258 325 111 156 164 192 176 123 92 73 88 104 113 116 115 112 112 120 119 118 119 121 121 121 121 127 136 138 139 137 135 133 130 126 125 123 120 118 116 114 110 110 108
241 239 233 233 235 232 236 198 209 211 192 175 166 153 104 104 103 113 115 116 112 109 112 121 120 120 122 121 120 124 131 132 134 142 142 142 142 141 139 135 133 131 125 120 123 123 120 119 116
251 243 246 252 248 233 222 160 198 214 210 210 304 156 124 113 105 113 117 112 107 107 111 120 127 129 127 129 129 131 131 139 143 147 148 146 149 148 147 145 143 139 136 127 128 128 126 128 125
282 274 250 250 255 248 228 138 39 13 315 5 1 59 120 122 110 106 103 107 110 110 115 120 129 133 135 138 141 142 142 140 151 154 159 156 155 156 158 154 154 151 146 140 139 136 134 137 136
279 255 243 249 257 254 160 134 94 34 16 1 33 56 89 118 119 120 112 104 111 116 123 128 127 128 130 141 147 147 151 149 146 146 159 164 164 163 164 163 162 160 157 153 153 153 151 151 160
225 237 243 299 335 353 15 44 123 159 193 251 122 95 107 125 131 141 150 151 140 131 130 128 132 132 134 141 143 148 152 158 159 156 159 172 173 170 167 165 164 165 165 163 165 167 168 170 179
219 241 267 319 3 14 16 359 332 247 228 233 204 137 132 130 134 152 164 168 152 139 128 123 125 126 129 131 139 144 155 167 176 175 170 175 177 164 155 152 157 162 166 168 173 176 182 190 186
238 254 272 312 355 346 333 319 297 284 289 5 29 72 119 140 152 170 172 153 131 134 135 131 135 129 127 131 146 150 154 169 173 183 179 164 166 161 162 163 167 171 175 179 180 185 189 189 190
235 249 271 317 316 323 314 264 275 262 224 39 54 66 90 135 146 153 141 132 120 128 133 143 138 134 139 134 141 133 147 164 182 179 182 165 161 173 171 175 175 175 175 179 186 183 175 185 194
245 247 250 254 239 237 253 260 253 244 187 146 156 154 148 147 121 97 79 75 104 137 135 143 146 140 140 150 157 145 142 146 139 144 145 156 160 173 178 180 178 179 176 181 184 177 171 175 176
272 251 245 232 217 204 228 248 230 216 191 204 208 188 171 149 115 96 83 57 53 62 75 125 154 143 157 171 177 139 141 143 132 122 136 141 145 171 184 181 188 186 181 186 183 181 167 179 174
224 231 233 208 205 190 211 246 207 180 187 209 201 188 154 142 121 107 98 76 54 68 90 99 137 152 168 184 193 145 142 132 139 144 144 151 160 165 179 181 196 193 186 186 180 180 180 188 184
203 227 231 212 195 191 213 252 185 159 188 211 198 177 161 145 121 101 100 102 76 63 106 109 118 172 183 193 180 163 121 116 129 141 152 181 182 185 181 186 195 197 190 191 190 187 179 182 188
217 231 233 218 196 223 233 248 223 200 220 215 202 191 178 176 156 106 91 91 91 65 91 119 104 173 200 182 140 124 136 155 179 173 193 213 218 207 187 188 194 187 186 194 191 189 189 181 177
272 256 255 253 223 241 240 248 231 209 217 221 211 202 190 178 128 106 103 96 92 75 62 69 78 175 154 156 170 177 195 201 212 207 198 222 254 234 198 189 194 192 197 200 189 190 196 198 170
264 269 265 267 260 278 267 261 242 212 216 219 212 200 190 165 127 132 116 101 82 73 58 35 37 17 82 166 199 207 195 201 200 197 206 223 239 236 205 195 197 201 201 202 199 178 198 219 190
247 258 267 281 312 275 294 275 229 213 204 203 208 198 182 179 166 144 130 111 83 55 39 17 2 345 291 209 150 142 133 115 166 208 217 239 232 224 221 213 203 203 200 205 207 197 190 208 223
240 264 281 275 271 254 217 272 235 198 194 201 203 195 182 166 160 148 120 111 98 67 40 14 355 338 282 235 198 198 208 207 220 209 215 235 260 257 235 219 214 211 208 210 213 207 203 192 211
243 286 276 262 251 277 232 243 260 186 207 206 197 189 177 159 148 114 112 101 71 56 40 3 340 330 322 300 238 216 230 235 216 202 204 215 234 252 253 230 218 216 217 212 215 218 212 208 209
189 287 285 264 232 253 223 220 256 199 209 200 189 176 152 125 94 82 72 75 67 50 27 3 333 321 318 307 276 242 230 229 234 218 211 216 217 225 238 245 222 227 226 225 219 217 215 214 217
205 163 200 218 224 239 189 216 244 186 179 171 165 151 135 113 84 70 62 54 44 40 15 353 339 329 327 322 290 258 245 223 231 231 216 217 223 228 225 232 228 230 231 229 225 221 224 220 219
213 209 198 224 241 256 206 226 230 163 129 102 115 131 119 101 86 61 53 48 25 11 8 356 338 330 332 317 287 275 267 242 236 239 234 225 221 221 221 218 226 238 231 230 226 232 230 225 225
211 219 244 271 279 269 236 221 221 132 124 122 122 118 117 107 85 46 12 10 11 360 347 334 330 329 327 316 304 287 273 261 252 250 247 247 236 230 220 217 213 230 232 233 228 229 237 232 231
245 243 179 205 230 256 251 228 211 183 184 167 154 138 104 84 63 35 355 349 6 360 345 349 349 329 321 325 318 310 310 297 286 279 257 257 260 248 230 231 218 228 240 238 236 233 240 243 241
201 211 210 225 244 232 260 256 36 154 145 150 150 117 83 52 45 28 359 356 349 358 358 354 348 341 335 328 320 321 310 307 307 290 284 274 271 260 252 244 228 226 242 245 240 244 242 243 252
241 213 189 199 234 230 257 267 51 94 84 78 66 60 55 39 23 18 358 353 347 349 353 346 343 338 324 316 320 323 321 312 301 293 289 278 270 264 262 255 245 239 243 242 240 250 253 247 248
Height
1493 1495 1496 1499 1501 1501 1496 1484 1476 1477 1479 1482 1483 1484 1486 1491 1496 1507 1507 1506 1506 1507 1508 1510 1512 1514 1516 1517 1519 1521 1522 1523 1525 1526 1527 1528 1529 1530 1531 1532 1533 1534 1535 1536 1536 1537 1537 1538 1538
1493 1495 1498 1498 1500 1502 1492 1480 1479 1479 1482 1484 1486 1487 1489 1494 1498 1502 1504 1505 1506 1507 1508 1510 1512 1514 1516 1517 1519 1521 1522 1524 1525 1526 1527 1529 1530 1531 1532 1533 1534 1535 1536 1536 1537 1538 1538 1539 1540
1493 1495 1497 1495 1495 1494 1486 1478 1479 1481 1483 1486 1488 1490 1493 1497 1500 1502 1504 1505 1506 1507 1508 1510 1512 1514 1516 1518 1519 1521 1522 1524 1525 1526 1528 1529 1530 1531 1532 1533 1534 1535 1536 1537 1538 1539 1539 1540 1541
1494 1496 1496 1495 1492 1484 1480 1479 1479 1482 1486 1487 1489 1492 1496 1499 1500 1502 1503 1505 1506 1507 1509 1510 1512 1514 1516 1518 1519 1521 1522 1524 1525 1527 1528 1529 1530 1531 1533 1534 1535 1536 1537 1538 1538 1539 1540 1541 1542
1494 1495 1495 1493 1488 1481 1478 1479 1480 1483 1486 1488 1489 1493 1497 1500 1500 1501 1503 1505 1506 1507 1508 1510 1512 1514 1516 1517 1519 1521 1522 1524 1525 1526 1528 1529 1530 1532 1533 1534 1535 1536 1537 1538 1539 1540 1541 1542 1543
1494 1492 1494 1492 1484 1480 1479 1480 1482 1484 1486 1488 1490 1493 1498 1500 1500 1502 1503 1505 1506 1507 1508 1510 1512 1514 1515 1517 1519 1520 1522 1523 1525 1526 1527 1529 1530 1531 1532 1534 1535 1536 1537 1538 1539 1540 1541 1542 1543
1493 1490 1489 1484 1482 1479 1478 1480 1482 1484 1486 1489 1490 1493 1497 1499 1500 1502 1503 1505 1506 1507 1508 1510 1511 1513 1515 1516 1518 1520 1521 1523 1524 1526 1527 1528 1529 1531 1532 1533 1534 1536 1537 1538 1539 1540 1541 1542 1543
1490 1489 1485 1483 1482 1480 1479 1480 1483 1485 1487 1490 1491 1493 1496 1498 1499 1501 1503 1505 1506 1507 1508 1509 1511 1512 1514 1516 1517 1519 1521 1522 1524 1525 1526 1528 1529 1530 1531 1532 1534 1535 1536 1537 1538 1539 1541 1542 1543
1489 1491 1487 1482 1480 1479 1479 1481 1484 1487 1489 1491 1492 1493 1495 1497 1498 1500 1502 1504 1505 1506 1507 1508 1510 1512 1513 1515 1516 1518 1519 1521 1522 1524 1525 1527 1528 1529 1530 1531 1533 1534 1535 1536 1538 1539 1540 1541 1542
1488 1490 1484 1481 1479 1480 1480 1482 1485 1488 1489 1492 1493 1494 1495 1496 1498 1499 1501 1502 1504 1505 1506 1507 1509 1510 1512 1513 1515 1516 1518 1519 1521 1522 1524 1525 1526 1528 1529 1530 1531 1533 1534 1535 1536 1538 1539 1540 1541
1485 1484 1482 1482 1482 1482 1482 1484 1486 1487 1489 1491 1492 1493 1494 1496 1497 1499 1500 1502 1503 1504 1505 1506 1508 1509 1511 1512 1513 1515 1516 1518 1519 1521 1522 1524 1525 1526 1527 1528 1530 1531 1533 1534 1535 1536 1537 1539 1540
1483 1482 1482 1483 1483 1484 1484 1486 1487 1488 1490 1490 1491 1492 1493 1494 1496 1497 1499 1500 1501 1503 1504 1505 1506 1508 1509 1510 1511 1513 1514 1516 1517 1519 1520 1521 1523 1524 1525 1526 1527 1529 1530 1532 1533 1534 1535 1537 1539
1482 1482 1483 1484 1485 1485 1486 1487 1487 1488 1489 1489 1490 1491 1492 1494 1495 1496 1498 1499 1500 1501 1502 1503 1504 1506 1507 1508 1509 1511 1512 1513 1515 1516 1518 1519 1520 1521 1523 1524 1525 1526 1528 1529 1531 1532 1533 1535 1537
1481 1482 1483 1484 1485 1485 1486 1486 1487 1486 1487 1488 1490 1491 1492 1493 1494 1495 1496 1497 1497 1499 1500 1501 1502 1503 1505 1506 1507 1508 1509 1511 1512 1513 1515 1516 1517 1518 1520 1521 1522 1524 1525 1527 1528 1530 1531 1533 1534
1482 1483 1483 1483 1483 1485 1486 1486 1484 1485 1486 1487 1488 1489 1490 1491 1492 1493 1493 1494 1495 1496 1497 1498 1499 1501 1502 1503 1504 1505 1507 1508 1509 1510 1512 1513 1514 1515 1517 1518 1519 1521 1522 1524 1525 1527 1528 1530 1531
1482 1484 1485 1481 1481 1483 1488 1486 1481 1482 1484 1485 1486 1487 1488 1489 1490 1491 1491 1492 1493 1494 1494 1495 1496 1498 1499 1500 1501 1502 1504 1505 1506 1507 1509 1510 1511 1512 1513 1514 1516 1518 1519 1520 1522 1524 1525 1526 1528
1482 1485 1482 1481 1479 1480 1484 1483 1480 1480 1482 1483 1484 1486 1486 1487 1488 1488 1489 1489 1490 1491 1492 1492 1493 1494 1496 1497 1498 1499 1500 1502 1503 1504 1505 1507 1508 1509 1510 1511 1512 1514 1516 1517 1518 1520 1522 1523 1524
1482 1480 1477 1478 1478 1479 1481 1480 1479 1479 1480 1481 1482 1483 1484 1485 1486 1486 1486 1487 1488 1488 1489 1490 1491 1491 1492 1493 1495 1496 1497 1498 1500 1501 1502 1503 1505 1506 1506 1507 1509 1510 1512 1514 1515 1516 1518 1519 1521
1476 1476 1476 1475 1477 1478 1478 1477 1477 1477 1479 1479 1480 1481 1482 1483 1484 1484 1484 1485 1485 1486 1486 1487 1488 1488 1489 1489 1490 1492 1493 1495 1496 1497 1498 1500 1501 1502 1503 1504 1505 1506 1508 1510 1511 1512 1514 1516 1518
1476 1477 1475 1476 1477 1478 1477 1475 1473 1474 1475 1477 1478 1479 1480 1481 1481 1482 1482 1482 1483 1483 1483 1484 1484 1485 1486 1486 1487 1489 1490 1491 1492 1494 1495 1496 1497 1498 1498 1500 1501 1503 1504 1506 1507 1508 1510 1512 1514
1477 1479 1477 1478 1478 1478 1480 1476 1471 1470 1471 1474 1476 1477 1478 1479 1479 1480 1480 1480 1480 1480 1481 1481 1481 1482 1483 1483 1484 1485 1486 1487 1488 1489 1491 1492 1493 1494 1495 1496 1497 1499 1500 1501 1503 1504 1506 1507 1510
1478 1477 1477 1479 1484 1484 1482 1485 1469 1467 1469 1471 1473 1474 1475 1476 1477 1478 1478 1478 1478 1478 1478 1478 1479 1479 1479 1480 1481 1482 1483 1483 1484 1486 1487 1488 1489 1490 1491 1492 1493 1494 1496 1497 1498 1500 1501 1503 1504
1478 1477 1478 1480 1482 1486 1482 1486 1471 1464 1468 1469 1470 1472 1473 1474 1475 1476 1476 1476 1476 1475 1475 1476 1476 1476 1476 1477 1478 1479 1479 1480 1482 1482 1483 1484 1485 1486 1487 1488 1489 1490 1491 1493 1494 1495 1497 1498 1500
1478 1479 1480 1480 1483 1489 1479 1482 1470 1466 1464 1464 1466 1468 1470 1472 1473 1474 1474 1474 1473 1473 1473 1473 1473 1473 1473 1474 1474 1475 1476 1477 1478 1478 1479 1480 1481 1482 1483 1484 1485 1486 1487 1488 1489 1491 1492 1494 1495
1479 1485 1488 1487 1487 1480 1471 1475 1468 1461 1459 1461 1463 1466 1468 1470 1471 1471 1472 1471 1471 1471 1471 1471 1471 1470 1471 1471 1471 1472 1473 1473 1474 1475 1475 1476 1477 1477 1479 1480 1481 1482 1483 1484 1485 1486 1487 1489 1490
1479 1479 1485 1486 1481 1473 1473 1472 1462 1458 1458 1460 1462 1464 1467 1468 1469 1470 1470 1470 1469 1469 1469 1468 1468 1468 1468 1468 1468 1469 1469 1470 1470 1471 1472 1472 1473 1474 1475 1476 1476 1477 1478 1479 1480 1481 1482 1484 1485
1477 1478 1477 1482 1482 1481 1468 1461 1459 1457 1459 1460 1462 1464 1466 1467 1468 1469 1469 1468 1468 1467 1466 1466 1465 1465 1465 1465 1465 1465 1466 1466 1466 1467 1467 1468 1469 1470 1471 1471 1472 1472 1473 1475 1475 1476 1478 1479 1480
1476 1476 1481 1484 1482 1476 1463 1460 1460 1459 1460 1461 1462 1463 1465 1466 1467 1467 1467 1467 1466 1465 1464 1463 1463 1462 1462 1462 1462 1462 1462 1463 1463 1463 1463 1464 1465 1466 1466 1467 1467 1468 1469 1470 1471 1471 1473 1473 1474
1476 1478 1478 1479 1478 1477 1471 1464 1454 1455 1456 1459 1461 1463 1464 1465 1465 1465 1465 1465 1464 1463 1462 1461 1460 1460 1459 1459 1459 1458 1459 1459 1459 1459 1459 1459 1461 1461 1461 1462 1462 1463 1464 1465 1466 1466 1467 1468 1469
1472 1472 1476 1482 1480 1476 1477 1470 1456 1456 1457 1459 1461 1463 1463 1464 1464 1464 1463 1463 1462 1461 1460 1459 1458 1457 1457 1456 1456 1455 1455 1456 1455 1455 1455 1456 1456 1457 1457 1458 1458 1458 1459 1460 1461 1462 1462 1463 1464